Location: Arrodets-la-Barthe
(43.0306°N, 0.2829°E)
Time: 10:53:35
(UTC+00:00)

Cosmos 2278 - Pass Details

Date: 29 May 2022
Orbit: 838 x 854 km, 71.1° (Epoch: 01 July)

Event Time Altitude Azimuth Distance (km) Brightness Sun altitude
Rises 20:47:07 0° 207° (SSW) 3,380 6.6 -12.0°
Reaches altitude 10° 20:49:33 10° 208° (SSW) 2,452 5.9 -12.3°
Maximum altitude 20:55:11 78° 295° (WNW) 868 3.9 -13.0°
Drops below altitude 10° 21:00:53 10° 22° (NNE) 2,478 6.5 -13.7°
Sets 21:03:21 0° 24° (NNE) 3,420 7.2 -14.0°
